This is the latest recevied weather packets stored in our database for station/object KC1TEM-13. If no packets are shown the sender has not sent any weather packets the latest 10 day(s).
| Time | Temp. | Humidity | Pressure | Rain* | Wind** | Luminosity | Snow |
|---|---|---|---|---|---|---|---|
| 1777482740 | 11.11° C | 72% | 1016.6 hPa | 0 mm | - | 397 W/m² | - |
| 1777482437 | 11.11° C | 71% | 1016.7 hPa | 0 mm | - | 450 W/m² | - |
| 1777482134 | 11.67° C | 72% | 1016.6 hPa | 0 mm | - | 426 W/m² | - |
| 1777481832 | 11.67° C | 71% | 1016.8 hPa | 0 mm | - | 423 W/m² | - |
| 1777481529 | 11.67° C | 70% | 1016.7 hPa | 0 mm | - | 383 W/m² | - |
| 1777481225 | 11.67° C | 70% | 1016.5 hPa | 0 mm | - | 419 W/m² | - |
| 1777480923 | 11.11° C | 73% | 1016.8 hPa | 0 mm | - | 363 W/m² | - |
| 1777480618 | 11.11° C | 72% | 1016.8 hPa | 0 mm | - | 363 W/m² | - |
| 1777480315 | 11.11° C | 72% | 1016.7 hPa | 0 mm | - | 358 W/m² | - |
| 1777480011 | 10.56° C | 74% | 1016.5 hPa | 0 mm | - | 371 W/m² | - |
| 1777479708 | 10.56° C | 74% | 1016.5 hPa | 0 mm | - | 350 W/m² | - |
| 1777479407 | 10.56° C | 73% | 1016.4 hPa | 0 mm | - | 363 W/m² | - |
| 1777479102 | 10.56° C | 75% | 1016.5 hPa | 0 mm | - | 390 W/m² | - |
| 1777478799 | 10.56° C | 75% | 1016.8 hPa | 0 mm | - | 346 W/m² | - |
| 1777478496 | 10° C | 76% | 1016.6 hPa | 0 mm | - | 364 W/m² | - |
| 1777478193 | 10° C | 77% | 1016.7 hPa | 0 mm | - | 340 W/m² | - |
| 1777477889 | 10° C | 78% | 1016.8 hPa | 0 mm | - | 315 W/m² | - |
| 1777477584 | 10° C | 77% | 1016.9 hPa | 0 mm | - | 347 W/m² | - |
| 1777477281 | 10° C | 79% | 1017 hPa | 0 mm | - | 313 W/m² | - |
| 1777476977 | 10° C | 79% | 1017.4 hPa | 0 mm | - | 305 W/m² | - |
| 1777476676 | 9.44° C | 79% | 1017.5 hPa | 0 mm | - | 288 W/m² | - |
| 1777476372 | 9.44° C | 80% | 1017.7 hPa | 0 mm | - | 365 W/m² | - |
| 1777476069 | 9.44° C | 80% | 1017.7 hPa | 0 mm | - | 231 W/m² | - |
| 1777475763 | 9.44° C | 81% | 1017.9 hPa | 0 mm | - | 394 W/m² | - |
| 1777475461 | 9.44° C | 82% | 1017.8 hPa | 0 mm | - | 306 W/m² | - |
* Rain latest hour (hover to see other rain measurements)
** Current wind speed in m/s (hover to see current wind gust speed)